Tracking 28799 objects as of 18-Apr-2024
HD Live streaming from Space Station
objects crossing your sky now

COSMOS 1691 DEB

Track COSMOS 1691 DEB now!
10-day predictions


NORAD ID: 19111
Int'l Code: 1985-094V
Perigee: 1,378.3 km
Apogee: 1,402.3 km
Inclination: 82.6 °
Period: 113.4 minutes
Semi major axis: 7761 km
RCS: 0.0114 m2 (small)
Launch date: October 9, 1985
Source: Commonwealth of Independent States (former USSR) (CIS)
Launch site: PLESETSK MISSILE AND SPACE COMPLEX (PKMTR)

Note: This is SATELLITE DEBRIS
Your satellite tracking list
Your tracking list is empty




NASA's NSSDC Master Catalog

Two Line Element Set (TLE):
1 19111U 85094W   24109.11759662  .00000499  00000-0  24724-2 0  9995
2 19111  82.6095 354.5024 0015460  56.7870  96.0870 12.69697602675698
Source of the keplerian elements: AFSPC